Regional Weather Roundup
Issued by NWS

Home | Current Version | Previous Version | Graphics & Text | Print | Product List | Glossary On
Versions: 1 2 3 4 5 6 7 8 9 10 11 12 13 14 15 16 17 18 19 20 21 22 23 24 25 26 27 28 29 30 31 32 33 34 35 36 37 38 39 40 41 42 43 44 45 46 47 48 49 50
000
ASUS45 KSLC 290910
RWRUT

UTAH REGIONAL WEATHER ROUNDUP
NATIONAL WEATHER SERVICE SALT LAKE CITY UT
300 AM MDT FRI MAY 29 2015

UTZ001>011-023>025-291000-

NORTHERN UTAH

CITY           SKY/WX    TMP DP  RH WIND       PRES   REMARKS
BRIGHAM CITY   CLEAR     51  46  84 NW3       30.17S
HILL AFB       CLEAR     51  41  70 SE9       30.17S
LOGAN          CLEAR     45  43  93 CALM      30.19S
OGDEN          CLEAR     52  43  71 S5        30.16S
PROVO AIRPORT  CLEAR     48  39  71 SE8       30.18R
SALT LAKE CITY CLEAR     55  44  66 SE6       30.15S
VERNAL         MOCLDY    46  41  82 CALM      30.20S
WENDOVER       CLEAR     57  46  67 CALM      30.16S
HEBER CITY     CLEAR     37  36  93 CALM      30.22S
WEST JORDAN    CLEAR     52  43  71 CALM      30.17F

$$

UTZ012>022-026-027-291000-

SOUTHERN/CENTRAL UTAH

CITY           SKY/WX    TMP DP  RH WIND       PRES   REMARKS
BLANDING       CLEAR     53  38  58 NW8       30.21F
BRYCE CANYON   MOCLDY    43  39  86 NE5       30.28S
CEDAR CITY     MOCLDY    53  46  77 CALM      30.15R
DELTA          CLEAR     51  44  78 NE6       30.17S
HANKSVILLE     CLEAR     55  39  54 NE8       30.14S
MILFORD        PTCLDY    49  45  86 NE6       30.15S
MOAB/CYNLANDS  CLEAR     54  41  61 CALM      30.11S
PRICE          CLEAR     48  36  63 N9        30.19F
ST GEORGE      SUNNY     72  39  30 SE6       30.01R
KANAB          CLOUDY    59  43  55 NE5       30.15S

$$

REGIONAL REPORTS     COLORADO/ARIZONA

CITY           SKY/WX    TMP DP  RH WIND       PRES   REMARKS
CRAIG, CO      MOCLDY    39  37  92 CALM      30.25R
GRAND JUNCTION CLEAR     49  45  86 CALM      30.16S
RIFLE          CLEAR     44  39  82 SE7       30.22S
MONTROSE       CLEAR     44  40  85 SE8       30.22S
CORTEZ         CLEAR     43  39  86 E3        30.16S
PAGE, AZ       MOCLDY    70  40  33 NW3       30.07S
GRAND CANYON   MOCLDY    46  38  73 CALM      30.21S
KINGMAN        MOCLDY    67  21  17 CALM      30.00R
FLAGSTAFF      MOCLDY    46  26  45 CALM      30.23R

$$

REGIONAL REPORTS    NEVADA/IDAHO/WYOMING

CITY           SKY/WX    TMP DP  RH WIND       PRES   REMARKS
LAS VEGAS, NV  PTCLDY    83  27  13 S10       29.84R
ELY            CLEAR     44  40  85 S9        30.22S
ELKO           PTCLDY    55  42  61 E3        30.15S
POCATELLO, ID  CLEAR     47  45  93 CALM      30.20S
BURLEY         CLEAR     53  44  71 E6        30.15S
EVANSTON, WY   CLEAR     39  34  82 CALM      30.26S
ROCK SPRINGS   PTCLDY    43  36  76 CALM      30.26R
KEMMERER       CLEAR     37  36  93 NW3       30.28R

$$



USA.gov is the U.S. government's official web portal to all federal, state and local government web resources and services.